Change the Weather History Date:

Monday, December 2, 2013

  Actual Average Record
Temperature  
Mean Temperature 59 °F 54 °F  
Max Temperature 70 °F 66 °F 78 °F (1941)
Min Temperature 48 °F 42 °F 25 °F (1960)
Degree Days  
Heating Degree Days 6 11  
Month to date heating degree days 17 22  
Since 1 July heating degree days 317 299  
Growing Degree Days 8 (Base 50)    
Moisture  
Dew Point 47 °F    
Average Humidity 72    
Maximum Humidity 96    
Minimum Humidity 36    
Precipitation  
Precipitation T in 0.19 in 0.58 in (1967)
Month to date precipitation T 0.39  
Year to date precipitation 69.27 49.97  
Sea Level Pressure  
Sea Level Pressure 29.93 in    
Wind  
Wind Speed 3 mph (SSW)    
Max Wind Speed 9 mph    
Max Gust Speed -    
Visibility 10 miles    
Events Rain    
T = Trace of Precipitation, MM = Missing Value Source: NWS Daily Summary

Daily Weather History Graph

Daily Weather History Graph

Search for Another Location

Airport or City:

Trip Planner

Search our weather history database for the weather conditions in past years. The results will help you decide how hot, cold, wet, or windy it might be!

Date:

Astronomy

Dec. 02, 2013 Rise Set
Actual Time 6:23 AM CST 4:38 PM CST
Civil Twilight 5:57 AM CST 5:05 PM CST
Nautical Twilight 5:27 AM CST 5:35 PM CST
Astronomical Twilight 4:58 AM CST 6:04 PM CST
Moon 5:50 AM CST (12/2) 4:39 PM CST (12/2)
Length of Visible Light 11h 07m
Length of Day
10h 14m
Waning Crescent, 0% of the Moon is Illuminated
Dec 2
Waning Crescent
Dec 2
New
Dec 9
First Quarter
Dec 17
Full
Dec 25
Last Quarter

Hourly Weather History & Observations

Time (CST) Temp. Dew Point Humidity Pressure Visibility Wind Dir Wind Speed Gust Speed Precip Events Conditions
12:53 AM 51.1 °F 48.9 °F 92% 30.04 in 10.0 mi Calm Calm - N/A   Clear
1:53 AM 50.0 °F 48.0 °F 93% 30.02 in 10.0 mi Calm Calm - N/A   Clear
2:53 AM 50.0 °F 48.0 °F 93% 30.02 in 10.0 mi Calm Calm - N/A   Clear
3:53 AM 50.0 °F 48.9 °F 96% 29.98 in 10.0 mi East 8.1 mph - 0.00 in Rain Light Rain
4:53 AM 52.0 °F 48.9 °F 89% 29.98 in 10.0 mi West 9.2 mph - 0.00 in   Partly Cloudy
5:53 AM 50.0 °F 48.0 °F 93% 30.00 in 9.0 mi NW 5.8 mph - N/A   Mostly Cloudy
6:53 AM 48.0 °F 46.0 °F 93% 30.00 in 9.0 mi Calm Calm - N/A   Mostly Cloudy
7:53 AM 52.0 °F 46.9 °F 83% 29.98 in 10.0 mi Calm Calm - N/A   Clear
8:53 AM 57.9 °F 48.0 °F 70% 29.98 in 10.0 mi Calm Calm - N/A   Clear
9:53 AM 62.1 °F 48.0 °F 60% 29.96 in 10.0 mi East 5.8 mph - N/A   Clear
10:53 AM 64.0 °F 46.9 °F 54% 29.94 in 10.0 mi SE 3.5 mph - N/A   Clear
11:53 AM 66.9 °F 45.0 °F 45% 29.90 in 10.0 mi Variable 3.5 mph - N/A   Clear
12:53 PM 69.1 °F 44.1 °F 40% 29.87 in 10.0 mi Calm Calm - N/A   Clear
1:53 PM 69.1 °F 41.0 °F 36% 29.86 in 10.0 mi WSW 4.6 mph - N/A   Clear
2:53 PM 69.1 °F 41.0 °F 36% 29.84 in 10.0 mi WSW 5.8 mph - N/A   Clear
3:53 PM 66.9 °F 43.0 °F 42% 29.84 in 10.0 mi SSW 4.6 mph - N/A   Clear
4:53 PM 64.0 °F 44.1 °F 48% 29.86 in 10.0 mi SW 3.5 mph - N/A   Clear
5:53 PM 55.9 °F 46.9 °F 72% 29.87 in 10.0 mi Calm Calm - N/A   Clear
6:53 PM 54.0 °F 46.0 °F 75% 29.88 in 10.0 mi South 5.8 mph - N/A   Clear
7:53 PM 57.0 °F 48.9 °F 74% 29.88 in 10.0 mi South 6.9 mph - N/A   Overcast
8:53 PM 55.9 °F 50.0 °F 80% 29.88 in 10.0 mi SSW 4.6 mph - N/A   Overcast
9:53 PM 55.9 °F 51.1 °F 84% 29.89 in 10.0 mi SSW 6.9 mph - N/A   Overcast
10:53 PM 55.9 °F 52.0 °F 87% 29.90 in 10.0 mi South 5.8 mph - N/A   Overcast
11:53 PM 55.9 °F 52.0 °F 87% 29.89 in 10.0 mi South 6.9 mph - N/A   Overcast